TimeEDT,TemperatureF,Dew PointF,Humidity,Sea Level PressureIn,VisibilityMPH,Wind Direction,Wind SpeedMPH,Gust SpeedMPH,PrecipitationIn,Events,Conditions,WindDirDegrees,DateUTC
12:14 AM,38.1,33.8,84,29.83,7.0,North,17.3,23.0,N/A,,Overcast,360,2012-11-02 04:14:00
12:33 AM,38.3,33.4,83,29.83,10.0,North,19.6,26.5,N/A,,Overcast,360,2012-11-02 04:33:00
12:53 AM,38.1,32.9,81,29.84,10.0,North,16.1,24.2,N/A,,Overcast,350,2012-11-02 04:53:00
1:14 AM,36.0,32.5,87,29.85,5.0,North,16.1,28.8,N/A,Snow,Light Snow,350,2012-11-02 05:14:00
1:34 AM,37.4,31.6,80,29.85,10.0,NNW,17.3,27.6,N/A,,Overcast,340,2012-11-02 05:34:00
1:54 AM,37.8,30.6,75,29.85,10.0,NNW,17.3,27.6,N/A,,Overcast,340,2012-11-02 05:54:00
2:14 AM,37.0,32.0,82,29.85,10.0,NNW,17.3,26.5,N/A,,Overcast,340,2012-11-02 06:14:00
2:34 AM,37.8,29.8,73,29.86,10.0,North,19.6,26.5,N/A,,Overcast,350,2012-11-02 06:34:00
2:54 AM,36.9,30.7,79,29.87,7.0,North,19.6,26.5,N/A,,Overcast,350,2012-11-02 06:54:00
3:14 AM,37.6,29.5,73,29.87,10.0,North,19.6,27.6,N/A,,Overcast,350,2012-11-02 07:14:00
3:33 AM,37.4,29.3,73,29.88,10.0,North,18.4,26.5,N/A,,Overcast,350,2012-11-02 07:33:00
3:54 AM,37.4,28.6,70,29.88,10.0,North,15.0,27.6,N/A,,Overcast,350,2012-11-02 07:54:00
4:13 AM,37.4,29.3,73,29.88,10.0,NNW,16.1,26.5,N/A,,Overcast,340,2012-11-02 08:13:00
4:34 AM,37.8,29.7,73,29.89,10.0,NNW,16.1,26.5,N/A,,Overcast,330,2012-11-02 08:34:00
4:53 AM,37.4,29.7,74,29.89,10.0,NNW,21.9,29.9,N/A,,Overcast,330,2012-11-02 08:53:00
5:14 AM,37.6,29.5,73,29.90,10.0,North,17.3,25.3,N/A,,Overcast,350,2012-11-02 09:14:00
5:34 AM,37.4,29.5,73,29.91,10.0,North,18.4,26.5,N/A,,Overcast,350,2012-11-02 09:34:00
5:54 AM,37.0,30.0,76,29.91,10.0,North,17.3,26.5,N/A,,Overcast,350,2012-11-02 09:54:00
6:14 AM,37.4,30.4,76,29.92,10.0,North,17.3,28.8,N/A,,Overcast,350,2012-11-02 10:14:00
6:34 AM,37.6,30.4,75,29.92,10.0,NNW,21.9,27.6,N/A,,Overcast,340,2012-11-02 10:34:00
6:54 AM,37.8,30.7,76,29.92,10.0,NNW,19.6,25.3,N/A,,Overcast,340,2012-11-02 10:54:00
7:14 AM,37.4,31.8,80,29.93,10.0,NNW,18.4,29.9,N/A,,Overcast,330,2012-11-02 11:14:00
7:33 AM,37.9,30.2,74,29.94,10.0,NW,19.6,29.9,N/A,,Overcast,320,2012-11-02 11:33:00
7:54 AM,37.4,31.8,80,29.94,10.0,NNW,19.6,24.2,N/A,,Overcast,340,2012-11-02 11:54:00
8:13 AM,36.9,32.4,84,29.94,10.0,North,19.6,26.5,N/A,,Overcast,360,2012-11-02 12:13:00
8:34 AM,36.9,32.2,83,29.95,10.0,North,17.3,29.9,N/A,,Overcast,350,2012-11-02 12:34:00
8:54 AM,37.9,32.4,80,29.95,10.0,NNW,19.6,27.6,N/A,,Overcast,340,2012-11-02 12:54:00
9:14 AM,36.9,32.5,84,29.97,7.0,North,17.3,24.2,N/A,Rain,Light Rain,360,2012-11-02 13:14:00
9:34 AM,35.8,33.3,91,29.97,4.0,North,16.1,26.5,N/A,Snow,Light Snow,350,2012-11-02 13:34:00
9:54 AM,37.0,32.9,85,29.98,10.0,North,18.4,26.5,N/A,,Overcast,350,2012-11-02 13:54:00
10:14 AM,37.4,31.5,79,29.99,10.0,North,15.0,25.3,N/A,,Overcast,360,2012-11-02 14:14:00
10:34 AM,37.9,32.2,80,29.99,10.0,NNW,15.0,23.0,N/A,,Overcast,340,2012-11-02 14:34:00
10:54 AM,38.3,30.9,75,30.00,10.0,North,13.8,24.2,N/A,,Overcast,350,2012-11-02 14:54:00
11:14 AM,37.9,30.7,75,30.00,10.0,NNW,17.3,27.6,N/A,,Overcast,340,2012-11-02 15:14:00
11:34 AM,38.3,31.1,75,30.01,10.0,North,13.8,23.0,N/A,,Overcast,350,2012-11-02 15:34:00
11:54 AM,37.9,31.5,77,30.02,10.0,North,16.1,21.9,N/A,,Overcast,350,2012-11-02 15:54:00
12:14 PM,38.3,30.6,74,30.02,10.0,North,18.4,25.3,N/A,,Overcast,350,2012-11-02 16:14:00
12:34 PM,38.3,30.6,74,30.02,10.0,North,11.5,24.2,N/A,,Overcast,350,2012-11-02 16:34:00
12:54 PM,39.0,30.4,71,30.03,10.0,North,15.0,20.7,N/A,,Overcast,350,2012-11-02 16:54:00
1:13 PM,39.2,30.0,70,30.03,10.0,North,12.7,25.3,N/A,,Overcast,350,2012-11-02 17:13:00
1:34 PM,39.6,30.4,70,30.04,10.0,NNW,15.0,25.3,N/A,,Overcast,340,2012-11-02 17:34:00
1:54 PM,39.2,30.6,71,30.04,10.0,NNW,13.8,21.9,N/A,,Overcast,330,2012-11-02 17:54:00
2:13 PM,39.2,30.7,72,30.04,10.0,NNW,13.8,18.4,N/A,,Overcast,340,2012-11-02 18:13:00
2:34 PM,39.2,30.4,71,30.04,10.0,NNW,13.8,19.6,N/A,,Overcast,340,2012-11-02 18:34:00
2:54 PM,39.2,30.6,71,30.04,10.0,NNW,17.3,25.3,N/A,,Overcast,330,2012-11-02 18:54:00
3:14 PM,39.4,30.9,72,30.05,10.0,NNW,13.8,21.9,N/A,,Overcast,340,2012-11-02 19:14:00
3:34 PM,39.0,31.3,74,30.05,10.0,NNW,13.8,25.3,N/A,,Overcast,340,2012-11-02 19:34:00
3:54 PM,38.3,31.5,76,30.06,10.0,NW,16.1,25.3,N/A,,Overcast,320,2012-11-02 19:54:00
4:14 PM,39.2,31.6,74,30.06,10.0,NW,15.0,23.0,N/A,,Overcast,320,2012-11-02 20:14:00
4:34 PM,39.2,30.6,71,30.06,10.0,NNW,13.8,28.8,N/A,,Overcast,330,2012-11-02 20:34:00
4:54 PM,39.0,31.5,74,30.07,7.0,NW,15.0,23.0,N/A,,Overcast,320,2012-11-02 20:54:00
5:14 PM,38.7,30.9,74,30.07,10.0,North,15.0,19.6,N/A,,Overcast,350,2012-11-02 21:14:00
5:34 PM,38.8,31.3,74,30.07,10.0,NNW,13.8,24.2,N/A,,Overcast,330,2012-11-02 21:34:00
5:54 PM,37.9,31.3,77,30.08,10.0,NNW,15.0,21.9,N/A,,Overcast,340,2012-11-02 21:54:00
6:14 PM,37.4,32.5,83,30.09,7.0,NNW,13.8,21.9,N/A,Rain,Light Rain,340,2012-11-02 22:14:00
6:34 PM,36.5,32.9,87,30.09,5.0,NNW,15.0,24.2,N/A,Rain,Light Rain,340,2012-11-02 22:34:00
6:54 PM,38.3,31.3,76,30.09,10.0,NNW,15.0,23.0,N/A,,Overcast,340,2012-11-02 22:54:00
7:14 PM,38.3,31.8,77,30.10,10.0,NNW,16.1,23.0,N/A,,Overcast,330,2012-11-02 23:14:00
7:34 PM,38.1,32.7,81,30.11,10.0,NNW,16.1,21.9,N/A,,Overcast,330,2012-11-02 23:34:00
7:53 PM,37.4,32.0,81,30.12,10.0,NNW,18.4,24.2,N/A,,Overcast,330,2012-11-02 23:53:00
8:14 PM,37.6,32.0,80,30.12,10.0,NNW,11.5,18.4,N/A,,Overcast,340,2012-11-03 00:14:00
8:33 PM,37.4,31.8,80,30.12,10.0,NNW,16.1,23.0,N/A,,Overcast,340,2012-11-03 00:33:00
8:54 PM,36.5,32.0,84,30.13,10.0,North,15.0,26.5,N/A,,Overcast,350,2012-11-03 00:54:00
9:13 PM,37.0,30.6,77,30.12,10.0,North,12.7,20.7,N/A,,Overcast,350,2012-11-03 01:13:00
9:34 PM,37.0,32.0,82,30.13,10.0,NNW,13.8,21.9,N/A,,Mostly Cloudy,340,2012-11-03 01:34:00
9:54 PM,37.0,32.0,82,30.13,10.0,North,16.1,23.0,N/A,,Mostly Cloudy,10,2012-11-03 01:54:00
10:13 PM,37.4,32.0,81,30.13,10.0,North,15.0,19.6,N/A,,Overcast,350,2012-11-03 02:13:00
10:34 PM,36.7,32.2,84,30.13,10.0,North,15.0,20.7,N/A,,Overcast,10,2012-11-03 02:34:00
10:54 PM,35.8,32.0,86,30.14,7.0,North,12.7,18.4,N/A,Snow,Light Snow,360,2012-11-03 02:54:00
11:14 PM,36.3,32.2,85,30.14,10.0,North,9.2,19.6,N/A,,Overcast,360,2012-11-03 03:14:00
11:34 PM,36.5,32.0,84,30.15,10.0,North,11.5,19.6,N/A,Rain,Light Rain,10,2012-11-03 03:34:00
11:54 PM,36.1,32.0,85,30.15,10.0,North,13.8,20.7,N/A,Snow,Light Snow,10,2012-11-03 03:54:00